This demonstration page uses our WeatherBlox Daily Observations layout. Learn more.

38.89511, -77.03637

Hourly Observations for November 11, 2017

Temp ( °F °C ) Dew Point ( °F °C ) Humidity (%) Winds ( mph kmh ) Pressure ( in mb ) Visibility ( mi km ) Precip ( " mm )
12:52 am 00:52 Mostly Clear 31 -0.6 12 -11.1 45 45 N 15 24 30.56 1035 10 16.09344 0 0
1:52 am 01:52 Clear 30 -1.1 10 -12.2 43 43 NNE 18 30 30.56 1035 10 16.09344 0 0
2:52 am 02:52 Clear 29 -1.7 7 -13.9 39 39 NNE 13 20 30.56 1035 10 16.09344 0 0
3:52 am 03:52 Mostly Clear 28 -2.2 9 -12.8 44 44 N 14 22 30.59 1036 10 16.09344 0 0
4:52 am 04:52 Mostly Clear 27 -2.8 9 -12.8 46 46 N 16 26 30.59 1036 10 16.09344 0 0
5:52 am 05:52 Mostly Clear 26 -3.3 8 -13.3 46 46 N 13 20 30.62 1037 10 16.09344 0 0
6:52 am 06:52 Mostly Cloudy 26 -3.3 9 -12.8 48 48 N 9 15 30.62 1037 10 16.09344 0 0
7:52 am 07:52 Mostly Cloudy 28 -2.2 8 -13.3 43 43 NNW 10 17 30.62 1037 10 16.09344 0 0
8:52 am 08:52 Mostly Cloudy 30 -1.1 9 -12.8 41 41 NNE 9 15 30.62 1037 10 16.09344 0 0
9:52 am 09:52 Partly Cloudy 32 0 10 -12.2 40 40 NNE 3 6 30.62 1037 10 16.09344 0 0
10:52 am 10:52 Mostly Cloudy 34 1.1 10 -12.2 37 37 Calm 30.62 1037 10 16.09344 0 0
11:52 am 11:52 Mostly Cloudy 35 1.7 11 -11.7 37 37 E 5 7 30.59 1036 10 16.09344 0 0
12:52 pm 12:52 Mostly Cloudy 38 3.3 11 -11.7 33 33 N 5 7 30.56 1035 10 16.09344 0 0
1:52 pm 13:52 Mostly Cloudy 38 3.3 11 -11.7 33 33 E 3 6 30.53 1034 10 16.09344 0 0
2:52 pm 14:52 Mostly Cloudy 38 3.3 12 -11.1 34 34 SSE 3 6 30.5 1033 10 16.09344 0 0
3:12 pm 15:12 Cloudy 38 3.3 12 -11.1 34 34 SSE 3 6 30.53 1034 10 16.09344 0 0
3:52 pm 15:52 Cloudy 38 3.3 13 -10.6 36 36 S 3 6 30.53 1034 10 16.09344 0 0
4:52 pm 16:52 Cloudy 37 2.8 14 -10 39 39 SSE 7 11 30.53 1034 10 16.09344 0 0
5:52 pm 17:52 Clear 36 2.2 10 -12.2 34 34 SSE 5 7 30.53 1034 10 16.09344 0 0
6:52 pm 18:52 Cloudy 36 2.2 13 -10.6 39 39 SE 6 9 30.5 1033 10 16.09344 0 0
7:52 pm 19:52 Cloudy 36 2.2 15 -9.4 42 42 SSE 7 11 30.53 1034 10 16.09344 0 0
8:52 pm 20:52 Cloudy 35 1.7 18 -7.8 50 50 SE 6 9 30.53 1034 10 16.09344 0 0
9:52 pm 21:52 Mostly Cloudy 35 1.7 19 -7.2 52 52 S 3 6 30.53 1034 10 16.09344 0 0
10:52 pm 22:52 Cloudy 34 1.1 21 -6.1 59 59 Calm 30.5 1033 10 16.09344 0 0
11:52 pm 23:52 Mostly Cloudy 33 0.6 23 -5 66 66 Calm 30.5 1033 10 16.09344 0 0

Powered by AerisWeather